Find Starlink 5303

NORAD ID: 55630 Int'l Des: 2023-021 Owner: SPXS Country: US Constellation: starlink operational
LEOCIRCULAR

当前视图

正在加载3D地球...

About Starlink 5303

Starlink 5303 (NORAD 55630) is a starlink constellation satellite (v1.5) launched Feb 17, 2023 by SPXS of US. It operates in LEO, CIRCULAR orbit with a mass of 305.00 kg.

关于 Starlink 5303

正在加载描述...

即将过境

Passes for default location (London). Set your location on the main map for personalized predictions.

高度历史

Loading altitude history...

两行轨道根数

1 55630U 23021C 26173.74930533 -.00001350 00000-0 -10536-3 0 9999
2 55630 69.9996 299.6208 0002695 270.0946 89.9904 14.98334053184030
Epoch: Jun 22, 2026 • Age: 23 hours

当前状态

高度 584.6 km
速度 7.57 km/s
星下点 65.67°N, 101.02°W
发射日期 Feb 17, 2023
运行时间 3.3 years
类型 internet

技术详情

分类 Payload
质量 305.00 kg
干质量 290.00 kg
总质量 305.00 kg
长度 0.20 m
直径 2.80 m
跨度 9.00 m
形状 Box + pan
制造商 SPXS
平台类型 Starlink
阶段状态 In Orbit
所有者/国家 SPXS/US

Most Searched